Погода в Усть-Хайрюзово

Россия / Камчатский край     57°05′23″N   156°44′09″E
темп.,
°C
ветер,
м/с
пор.,
м/с
влажн.,
%
обл.,
%
осадки,
мм/ч
давл.,
гПа
погр.,
м
9 декабря, чт
чт900:00−10з121569100 1.1 1004794
03:00−10з121572100 0.6 1004759
06:00−10з101379100 1.1 1006800
09:00−10з101379100 0.4 1007820
12:00−10зсз101377100 0.8 10101056
15:00−9зсз101374100 0.3 1012994
18:00−8зсз101467100 0.4 1014605
21:00−8зсз81166100 0.0 1017287
10 декабря, пт
пт1000:00−8з5970100 0.1 1019164
03:00−10ю5988100 0.0 1020203
06:00−8ююз71093100 0.2 1020294
09:00−7ю61095100 0.8 1020284
12:00−6юв4895100 0.9 1019247
15:00−5вюв51096100 1.4 1017334
18:00−5вюв4996100 2.9 1016212
21:000юз91492100 2.0 1016720
11 декабря, сб
сб1100:00−1юз71298100 2.7 1017711
03:00−1юз71298100 1.4 1017705
06:00−1юз91492100 2.1 1018602
09:00−2юз81291100 0.3 1019432
12:00−2юз71292100 0.4 1021507
15:00−2зюз598767 0.2 1021249
18:00−5ссв249697 0.3 1023119
21:00−12св4510069 0.1 102450
12 декабря, вс
вс1200:00−12всв33100100 0.1 102331
03:00−12св3496100 0.0 102142
06:00−12св5791100 0.0 101994
09:00−11ссв81385100 0.0 1017220
12:00−10св91585100 0.0 1016297
15:00−9св81283100 0.0 1013250
18:00−10св71284100 0.0 1013192
21:00−10св6984100 0.0 1011147
13 декабря, пн
пн1300:00−11св5885100 0.0 1010107
03:00−11всв3486100 0.0 100957
06:00−11всв3388100 0.0 100838
09:00−11всв2288100 0.0 100821
12:00−11в2287100 0.0 100734
15:00−8в1183100 0.0 100622
18:00−10всв228593 0.0 100617
21:00−12в218868 0.0 100615